| time (UTC) | temp C | wind direction | speed KPH | gust KPH | rain 1hr cm | rain 24hr cm | rain mn cm | humidity % | barometer mb |
| 20260905214504 | 29 | 63 | 0.0 | 0.0 | 0.00 | 0.25 | 0.25 | 77 | 1009.1 |
| 20260905211504 | 30 | 63 | 0.0 | 1.6 | 0.00 | 0.25 | 0.25 | 74 | 1009.4 |
| 20260905204515 | 31 | 69 | 0.0 | 1.6 | 0.00 | 0.25 | 0.25 | 72 | 1009.8 |
| 20260905203004 | 31 | 62 | 0.0 | 4.8 | 0.00 | 0.25 | 0.25 | 69 | 1009.7 |
| 20260905201504 | 31 | 69 | 0.0 | 0.0 | 0.00 | 0.25 | 0.25 | 68 | 1009.8 |
| 20260905200005 | 31 | 42 | 0.0 | 1.6 | 0.00 | 0.25 | 0.25 | 66 | 1010.0 |
| 20260905193004 | 31 | 57 | 0.0 | 1.6 | 0.00 | 0.25 | 0.25 | 70 | 1010.5 |
| 20260905191504 | 30 | 51 | 0.0 | 4.8 | 0.00 | 0.25 | 0.25 | 68 | 1010.7 |
| 20260905190004 | 30 | 81 | 0.0 | 8.0 | 0.00 | 0.25 | 0.25 | 68 | 1011.1 |
| 20260905183004 | 30 | 51 | 0.0 | 3.2 | 0.00 | 0.25 | 0.25 | 71 | 1011.4 |
| 20260905180004 | 28 | 74 | 0.0 | 1.6 | 0.00 | 0.25 | 0.25 | 71 | 1011.3 |
| 20260905174504 | 28 | 105 | 0.0 | 1.6 | 0.00 | 0.25 | 0.25 | 74 | 1011.3 |
| 20260905173004 | 28 | 165 | 0.0 | 0.0 | 0.00 | 0.25 | 0.25 | 72 | 1011.1 |
| 20260905171504 | 29 | 189 | 0.0 | 0.0 | 0.00 | 0.25 | 0.25 | 72 | 1011.3 |
| 20260905170004 | 29 | 245 | 0.0 | 3.2 | 0.00 | 0.25 | 0.25 | 70 | 1011.1 |
| 20260905161503 | 28 | 232 | 0.0 | 1.6 | 0.00 | 0.25 | 0.25 | 73 | 1011.4 |
| 20260905160003 | 27 | 276 | 0.0 | 0.0 | 0.00 | 0.25 | 0.25 | 73 | 1011.5 |
| 20260905154504 | 26 | 62 | 0.0 | 1.6 | 0.00 | 0.25 | 0.25 | 77 | 1011.9 |
| 20260905153004 | 26 | 135 | 0.0 | 3.2 | 0.00 | 0.25 | 0.25 | 77 | 1011.7 |
| 20260905151504 | 25 | 90 | 0.0 | 3.2 | 0.00 | 0.25 | 0.25 | 80 | 1011.6 |
| 20260905150004 | 24 | 80 | 0.0 | 3.2 | 0.00 | 0.25 | 0.25 | 79 | 1011.6 |
| 20260905144504 | 23 | 81 | 1.6 | 4.8 | 0.00 | 0.25 | 0.25 | 84 | 1011.3 |
| 20260905143003 | 23 | 252 | 0.0 | 4.8 | 0.00 | 0.25 | 0.25 | 86 | 1010.7 |
| 20260905141504 | 22 | 241 | 1.6 | 4.8 | 0.00 | 0.25 | 0.25 | 87 | 1010.6 |
| 20260905140004 | 22 | 57 | 0.0 | 0.0 | 0.00 | 0.25 | 0.25 | 91 | 1010.9 |
| 20260905134504 | 21 | 57 | 0.0 | 0.0 | 0.00 | 0.25 | 0.25 | 93 | 1011.2 |
| 20260905133004 | 21 | 57 | 0.0 | 0.0 | 0.00 | 0.25 | 0.25 | 93 | 1011.6 |
| 20260905131504 | 20 | 57 | 0.0 | 0.0 | 0.00 | 0.25 | 0.25 | 93 | 1012.1 |
| 20260905130004 | 20 | 57 | 0.0 | 0.0 | 0.00 | 0.25 | 0.25 | 93 | 1012.5 |
| 20260905124504 | 20 | 57 | 0.0 | 0.0 | 0.00 | 0.25 | 0.25 | 94 | 1012.7 |
| 20260905121503 | 20 | 57 | 0.0 | 0.0 | 0.00 | 0.25 | 0.25 | 93 | 1012.9 |
| 20260905120004 | 20 | 57 | 0.0 | 0.0 | 0.00 | 0.25 | 0.25 | 93 | 1012.6 |
| 20260905114504 | 20 | 57 | 0.0 | 0.0 | 0.00 | 0.25 | 0.25 | 93 | 1012.6 |
| 20260905113004 | 20 | 59 | 0.0 | 0.0 | 0.00 | 0.25 | 0.25 | 93 | 1012.8 |
| 20260905111504 | 20 | 59 | 0.0 | 0.0 | 0.20 | 0.25 | 0.25 | 92 | 1012.9 |
| 20260905110004 | 20 | 59 | 0.0 | 0.0 | 0.23 | 0.25 | 0.25 | 92 | 1013.1 |
| 20260905104504 | 20 | 59 | 0.0 | 1.6 | 0.23 | 0.25 | 0.25 | 91 | 1013.2 |
| 20260905103004 | 20 | 115 | 0.0 | 4.8 | 0.25 | 0.25 | 0.25 | 90 | 1013.3 |
| 20260905101504 | 20 | 44 | 3.2 | 12.9 | 0.05 | 0.05 | 0.05 | 88 | 1014.0 |
| 20260905093004 | 22 | 55 | 3.2 | 4.8 | 0.00 | 0.00 | 0.00 | 93 | 1012.8 |
| 20260905091504 | 22 | 79 | 0.0 | 0.0 | 0.00 | 0.00 | 0.00 | 92 | 1011.2 |
| 20260905090004 | 22 | 79 | 0.0 | 0.0 | 0.00 | 0.00 | 0.00 | 92 | 1010.8 |
| 20260905084504 | 22 | 79 | 0.0 | 0.0 | 0.00 | 0.00 | 0.00 | 93 | 1010.4 |
| 20260905081504 | 22 | 79 | 0.0 | 0.0 | 0.00 | 0.00 | 0.00 | 93 | 1010.8 |
| 20260905080004 | 22 | 79 | 0.0 | 0.0 | 0.00 | 0.00 | 0.00 | 93 | 1010.8 |
| 20260905074504 | 22 | 79 | 0.0 | 0.0 | 0.00 | 0.00 | 0.00 | 93 | 1010.7 |
| 20260905073004 | 21 | 79 | 0.0 | 0.0 | 0.00 | 0.00 | 0.00 | 93 | 1010.6 |
| 20260905064503 | 22 | 79 | 0.0 | 0.0 | 0.00 | 0.00 | 0.00 | 93 | 1010.5 |
| 20260905063004 | 22 | 79 | 0.0 | 0.0 | 0.00 | 0.00 | 0.00 | 93 | 1010.9 |
| 20260905061503 | 22 | 79 | 0.0 | 0.0 | 0.00 | 0.00 | 0.00 | 92 | 1011.0 |
| 20260905060004 | 22 | 79 | 0.0 | 0.0 | 0.00 | 0.00 | 0.00 | 93 | 1011.3 |
| 20260905053003 | 22 | 79 | 0.0 | 0.0 | 0.00 | 0.00 | 0.00 | 93 | 1011.7 |
| 20260905051505 | 22 | 79 | 0.0 | 0.0 | 0.00 | 0.00 | 0.00 | 93 | 1011.8 |
| 20260905050004 | 22 | 79 | 0.0 | 0.0 | 0.00 | 0.00 | 0.00 | 92 | 1011.9 |
| 20260905044504 | 22 | 79 | 0.0 | 0.0 | 0.00 | 0.00 | 0.00 | 92 | 1012.0 |
| 20260905043004 | 22 | 79 | 0.0 | 0.0 | 0.00 | 0.00 | 0.00 | 92 | 1012.0 |
| 20260905041504 | 22 | 79 | 0.0 | 0.0 | 0.00 | 0.00 | 0.00 | 92 | 1012.0 |
| 20260905040004 | 22 | 79 | 0.0 | 0.0 | 0.00 | 0.00 | 0.00 | 91 | 1012.3 |
| 20260905034504 | 22 | 79 | 0.0 | 0.0 | 0.00 | 0.00 | 0.00 | 91 | 1012.3 |
| 20260905031504 | 22 | 79 | 0.0 | 0.0 | 0.00 | 0.00 | 0.00 | 91 | 1012.2 |
| 20260905030004 | 22 | 79 | 0.0 | 0.0 | 0.00 | 0.00 | 0.00 | 90 | 1012.0 |
| 20260905021504 | 23 | 79 | 0.0 | 0.0 | 0.00 | 0.00 | 0.00 | 89 | 1011.9 |
| 20260905020004 | 23 | 79 | 0.0 | 0.0 | 0.00 | 0.00 | 0.00 | 89 | 1011.9 |
| 20260905014504 | 23 | 79 | 0.0 | 0.0 | 0.00 | 0.00 | 0.00 | 89 | 1011.7 |
| 20260905013004 | 23 | 79 | 0.0 | 0.0 | 0.00 | 0.00 | 0.00 | 89 | 1011.6 |
| 20260905004504 | 24 | 79 | 0.0 | 0.0 | 0.00 | 0.00 | 0.00 | 86 | 1011.1 |
| 20260905003003 | 25 | 79 | 0.0 | 0.0 | 0.00 | 0.00 | 0.00 | 85 | 1011.0 |
| 20260905001504 | 25 | 79 | 0.0 | 0.0 | 0.00 | 0.00 | 0.00 | 84 | 1010.7 |
| 20260904234504 | 25 | 79 | 0.0 | 0.0 | 0.00 | 0.00 | 0.00 | 82 | 1010.9 |
| 20260904233004 | 26 | 79 | 0.0 | 0.0 | 0.00 | 0.00 | 0.00 | 82 | 1011.0 |
| 20260904231504 | 26 | 79 | 0.0 | 0.0 | 0.00 | 0.00 | 0.00 | 82 | 1011.0 |
| 20260904230005 | 26 | 79 | 0.0 | 0.0 | 0.00 | 0.00 | 0.00 | 81 | 1011.2 |
| 20260904224504 | 26 | 79 | 0.0 | 0.0 | 0.00 | 0.00 | 0.00 | 80 | 1011.5 |
| 20260904223004 | 26 | 82 | 0.0 | 0.0 | 0.00 | 0.00 | 0.00 | 82 | 1011.7 |
| 20260904221505 | 25 | 82 | 0.0 | 1.6 | 0.00 | 0.00 | 0.00 | 83 | 1011.4 |